User: anonymous   Login
Location: Unspecified
(0.0000°N, 0.0000°E)
Time: 00:54:00
(UTC+00:00)
Language:

STARLINK-4724 - Orbit

View from above orbital plane
View from above orbital plane
View from above satellite
View from above satellite

Ground track
Ground track

The orbit is defined by the following mean orbital elements,

1 53702U          26144.98367628 +.00000000 +00000-0 -87974-4 0 00006
2 53702  53.2129 246.5240 0001116  90.7843 269.3277 15.08842154    08
Epoch (UTC): 24 May 2026 23:36:29
Eccentricity: 0.0001116
inclination: 53.2129°
perigee height: 539 km
apogee height: 541 km
right ascension of ascending node: 246.5240°
argument of perigee: 90.7843°
revolutions per day: 15.08842154
mean anomaly at epoch: 269.3277°

The dashed part of the orbit path shows where the satellite is in the earth's shadow,  

DLR